GW7270 Weather Reports


time (UTC)temp
C
wind
direction
speed
KPH
gust
KPH
rain 1hr
cm
rain 24hr
cm
rain mn
cm
humidity
%
barometer
mb
20260503224922 6 228 1.6 19.3 0.00 0.00 0.00 89 1002.8
20260503224421 6 204 6.4 19.3 0.00 0.00 0.00 89 1003.0
20260503223405 6 203 6.4 19.3 0.00 0.00 0.00 89 1003.0
20260503221834 6 202 8.0 19.3 0.00 0.00 0.00 89 1003.0
20260503221334 6 201 6.4 19.3 0.00 0.00 0.00 90 1003.0
20260503220833 6 195 8.0 19.3 0.00 0.00 0.00 91 1003.1
20260503220332 5 198 8.0 19.3 0.00 0.00 0.00 92 1003.3
20260503215832 5 204 9.7 19.3 0.00 0.00 0.00 91 1003.2
20260503215332 5 198 6.4 19.3 0.00 0.00 0.00 91 1003.5
20260503214316 5 198 8.0 19.3 0.00 0.00 0.00 91 1004.1
20260503213815 5 206 8.0 19.3 0.00 0.00 0.00 91 1003.4
20260503213314 5 190 8.0 19.3 0.00 0.00 0.00 92 1003.4
20260503212814 5 189 8.0 19.3 0.00 0.00 0.00 92 1003.3
20260503211757 5 209 8.0 19.3 0.00 0.00 0.00 94 1003.7
20260503211257 5 197 6.4 19.3 0.00 0.00 0.00 95 1003.4
20260503210756 5 191 8.0 19.3 0.00 0.00 0.00 95 1003.7
20260503210255 5 180 8.0 19.3 0.00 0.00 0.00 95 1003.8
20260503205239 5 195 8.0 19.3 0.00 0.00 0.00 95 1004.2
20260503204739 5 181 6.4 19.3 0.00 0.00 0.00 94 1004.0
20260503204238 5 181 6.4 19.3 0.00 0.00 0.00 94 1004.1
20260503203737 5 189 6.4 19.3 0.00 0.00 0.00 94 1004.2
20260503202721 5 177 8.0 19.3 0.00 0.00 0.00 93 1004.1
20260503202220 5 192 8.0 19.3 0.00 0.00 0.00 93 1004.2
20260503201719 5 195 6.4 19.3 0.00 0.00 0.00 94 1004.1
20260503200702 5 219 1.6 19.3 0.00 0.00 0.00 95 1004.5
20260503200202 5 198 4.8 19.3 0.00 0.00 0.00 95 1004.3
20260503195146 4 178 3.2 19.3 0.00 0.00 0.00 94 1004.5
20260503194645 4 194 4.8 19.3 0.00 0.00 0.00 94 1004.8
20260503194145 4 197 4.8 19.3 0.00 0.00 0.00 94 1004.9
20260503193645 4 215 3.2 19.3 0.00 0.00 0.00 93 1005.0
20260503193145 3 218 3.2 19.3 0.00 0.00 0.00 93 1004.7
20260503192644 4 244 1.6 19.3 0.00 0.00 0.00 92 1005.0
20260503192144 4 215 1.6 19.3 0.00 0.00 0.00 91 1005.2
20260503191643 4 232 1.6 19.3 0.00 0.00 0.00 90 1005.2
20260503191142 4 210 1.6 19.3 0.00 0.00 0.00 90 1005.5
20260503190642 4 209 4.8 19.3 0.00 0.00 0.00 89 1005.5
20260503190141 4 205 6.4 19.3 0.00 0.00 0.00 88 1005.5
20260503185641 4 203 3.2 19.3 0.00 0.00 0.00 88 1005.5
20260503185141 4 177 6.4 19.3 0.00 0.00 0.00 88 1005.2
20260503184640 4 181 6.4 19.3 0.00 0.00 0.00 88 1005.3
20260503184140 4 169 8.0 19.3 0.00 0.00 0.00 87 1005.1
20260503183640 4 173 8.0 19.3 0.00 0.00 0.00 86 1005.4
20260503183140 4 185 8.0 19.3 0.00 0.00 0.00 86 1005.6
20260503182639 4 182 6.4 19.3 0.00 0.00 0.00 86 1005.5
20260503182139 4 153 8.0 19.3 0.00 0.00 0.00 85 1005.5
20260503180607 4 168 6.4 19.3 0.00 0.00 0.00 85 1006.2
20260503180106 4 198 6.4 19.3 0.00 0.00 0.00 85 1006.5
20260503175606 4 166 11.3 22.5 0.00 0.00 0.00 84 1006.8
20260503175106 4 180 8.0 22.5 0.00 0.00 0.00 84 1006.7
20260503174605 4 171 9.7 22.5 0.00 0.00 0.00 85 1006.8
20260503174105 4 176 8.0 22.5 0.00 0.00 0.00 85 1006.8
20260503172535 4 167 8.0 22.5 0.00 0.00 0.00 81 1007.3
20260503172035 4 171 8.0 22.5 0.00 0.00 0.00 81 1007.2
20260503171534 5 175 9.7 22.5 0.00 0.00 0.00 80 1007.4
20260503171033 5 179 8.0 20.9 0.00 0.00 0.00 79 1007.4
20260503170532 5 182 8.0 20.9 0.00 0.00 0.00 79 1007.7
20260503150416 6 194 11.3 22.5 0.00 0.00 0.00 76 1009.7
20260503131304 5 171 6.4 19.3 0.00 0.00 0.00 82 1010.4
20260503130804 4 192 9.7 19.3 0.00 0.00 0.00 82 1010.5
20260503130304 4 177 8.0 19.3 0.00 0.00 0.00 82 1010.3
20260503110711 1 175 1.6 19.3 0.00 0.00 0.00 96 1010.7
20260503110211 1 175 0.0 19.3 0.00 0.00 0.00 97 1010.6
20260503100204 0 218 0.0 19.3 0.00 0.00 0.00 93 1011.1
20260503090130 1 235 0.0 19.3 0.00 0.00 0.00 90 1011.8
20260503081557 1 237 0.0 19.3 0.00 0.00 0.00 85 1012.9
20260503081056 1 237 0.0 19.3 0.00 0.00 0.00 84 1012.9
20260503080556 2 228 0.0 19.3 0.00 0.00 0.00 83 1013.0
20260503072538 2 223 1.6 19.3 0.00 0.00 0.00 79 1012.8
20260503072037 2 224 0.0 19.3 0.00 0.00 0.00 79 1013.2
20260503071537 2 206 0.0 19.3 0.00 0.00 0.00 78 1013.0
20260503071038 2 233 0.0 19.3 0.00 0.00 0.00 78 1012.9
20260503070538 2 265 0.0 19.3 0.00 0.00 0.00 77 1013.2
20260503054949 2 262 0.0 19.3 0.00 0.00 0.00 79 1013.8
20260503054448 2 249 0.0 19.3 0.00 0.00 0.00 79 1013.8
20260503053947 2 269 0.0 19.3 0.00 0.00 0.00 79 1013.9
20260503053447 2 281 1.6 19.3 0.00 0.00 0.00 79 1014.0
20260503052947 2 218 0.0 19.3 0.00 0.00 0.00 80 1013.9
20260503052447 2 264 1.6 19.3 0.00 0.00 0.00 80 1014.0
20260503051946 2 249 1.6 19.3 0.00 0.00 0.00 80 1014.2
20260503051446 2 235 0.0 19.3 0.00 0.00 0.00 80 1014.0
20260503050946 2 253 1.6 19.3 0.00 0.00 0.00 80 1014.2
20260503050445 2 279 0.0 19.3 0.00 0.00 0.00 81 1014.2
20260503045945 2 253 1.6 19.3 0.00 0.00 0.00 81 1014.0
20260503044928 2 258 1.6 19.3 0.00 0.00 0.00 81 1014.3
20260503044428 2 242 1.6 19.3 0.00 0.00 0.00 81 1014.6
20260503043928 2 281 1.6 19.3 0.00 0.00 0.00 81 1014.3
20260503042913 2 274 0.0 19.3 0.00 0.00 0.00 81 1014.4
20260503042412 2 256 1.6 19.3 0.00 0.00 0.00 81 1014.6
20260503041911 2 276 0.0 19.3 0.00 0.00 0.00 81 1014.8
20260503041411 2 165 1.6 19.3 0.00 0.00 0.00 80 1014.7
20260503040910 2 264 3.2 19.3 0.00 0.00 0.00 80 1014.7
20260503040410 2 250 0.0 19.3 0.00 0.00 0.00 81 1014.6
20260503035909 2 210 1.6 19.3 0.00 0.00 0.00 81 1014.7
20260503035409 2 263 1.6 19.3 0.00 0.00 0.00 81 1014.6
20260503034909 2 245 1.6 19.3 0.00 0.00 0.00 81 1015.4
20260503034409 2 261 1.6 19.3 0.00 0.00 0.00 81 1014.9
20260503033909 2 242 1.6 19.3 0.00 0.00 0.00 81 1014.9
20260503033409 2 224 1.6 19.3 0.00 0.00 0.00 81 1015.3
20260503032909 2 231 1.6 19.3 0.00 0.00 0.00 81 1015.3
20260503031854 2 258 1.6 19.3 0.00 0.00 0.00 81 1015.2
20260503030838 2 248 3.2 19.3 0.00 0.00 0.00 81 1014.8
20260503030338 2 229 1.6 19.3 0.00 0.00 0.00 81 1014.9
20260503025837 2 261 1.6 19.3 0.00 0.00 0.00 81 1015.8
20260503025336 2 252 3.2 19.3 0.00 0.00 0.00 80 1015.8
20260503024836 2 248 3.2 19.3 0.00 0.00 0.00 80 1016.0
20260503024336 2 237 1.6 19.3 0.00 0.00 0.00 80 1015.7
20260503023836 2 282 1.6 19.3 0.00 0.00 0.00 79 1016.0
20260503023335 2 23 1.6 19.3 0.00 0.00 0.00 78 1015.8
20260503022834 2 271 1.6 19.3 0.00 0.00 0.00 76 1016.0
20260503022333 2 275 1.6 19.3 0.00 0.00 0.00 75 1015.9
20260503021832 2 263 1.6 19.3 0.00 0.00 0.00 74 1016.2
20260503020816 2 266 1.6 19.3 0.00 0.00 0.00 73 1016.2
20260503020315 2 281 3.2 19.3 0.00 0.00 0.00 72 1016.3
20260503015815 2 266 3.2 19.3 0.00 0.00 0.00 73 1016.2
20260503015315 2 267 3.2 19.3 0.00 0.00 0.00 73 1016.3
20260503014814 2 266 3.2 19.3 0.00 0.00 0.00 73 1016.3
20260503014313 2 268 1.6 19.3 0.00 0.00 0.00 75 1016.4
20260503013812 2 286 1.6 19.3 0.00 0.00 0.00 77 1016.3
20260503013311 1 266 1.6 19.3 0.00 0.00 0.00 79 1016.2
20260503012810 1 267 1.6 19.3 0.00 0.00 0.00 81 1016.3
20260503012310 1 236 0.0 19.3 0.00 0.00 0.00 83 1016.1
20260503011810 1 236 0.0 19.3 0.00 0.00 0.00 84 1016.1
20260503011310 1 232 0.0 19.3 0.00 0.00 0.00 83 1016.2
20260503010809 1 227 0.0 19.3 0.00 0.00 0.00 83 1016.2
20260503010309 2 230 0.0 19.3 0.00 0.00 0.00 82 1016.1
20260503004738 2 269 0.0 19.3 0.00 0.00 0.00 79 1016.2
20260503004237 2 250 0.0 19.3 0.00 0.00 0.00 78 1016.2
20260503003736 2 267 1.6 19.3 0.00 0.00 0.00 77 1016.0
20260503003236 2 234 1.6 19.3 0.00 0.00 0.00 77 1015.8
20260503002220 2 261 3.2 19.3 0.00 0.00 0.00 75 1016.2
20260503001719 3 262 1.6 19.3 0.00 0.00 0.00 74 1016.1
20260503001218 3 262 3.2 19.3 0.00 0.00 0.00 74 1016.2
20260503000717 3 229 1.6 19.3 0.00 0.00 0.00 73 1016.0
20260503000218 3 259 1.6 19.3 0.00 0.00 0.00 72 1016.1
20260502235200 3 268 3.2 19.3 0.00 0.00 0.00 71 1016.2
20260502234659 3 256 4.8 19.3 0.00 0.00 0.00 73 1016.5
20260502234158 3 266 3.2 19.3 0.00 0.00 0.00 72 1016.2
20260502233657 4 260 4.8 19.3 0.00 0.00 0.00 72 1016.4
20260502233157 4 284 3.2 20.9 0.00 0.00 0.00 71 1016.4
20260502232657 4 230 3.2 20.9 0.00 0.00 0.00 71 1016.1
20260502232156 4 264 4.8 20.9 0.00 0.00 0.00 70 1016.1
20260502231656 4 249 6.4 20.9 0.00 0.00 0.00 69 1016.3
20260502230640 5 271 4.8 20.9 0.00 0.00 0.00 69 1016.3
20260502230139 5 250 3.2 19.3 0.00 0.00 0.00 71 1016.4
20260502225639 5 288 3.2 19.3 0.00 0.00 0.00 72 1016.5
20260502225139 5 269 3.2 19.3 0.00 0.00 0.00 72 1016.2